Previsão horária em Jurki

Hoje, 24 Junho, Quinta-feira

Tempo Temperatura Precipitação Vento Pressão Humidade
00:00 +20°C° 0 mm 2 m/s 750 mmHg 94%
01:00 +20°C° 0 mm 2 m/s 750 mmHg 96%
02:00 +19°C° 0 mm 2 m/s 750 mmHg 96%
03:00 +19°C° 0 mm 2 m/s 750 mmHg 97%
04:00 +19°C° 0 mm 2 m/s 750 mmHg 97%
05:00 +20°C° 0 mm 2 m/s 749 mmHg 94%
06:00 +21°C° 0 mm 3 m/s 749 mmHg 91%
07:00 +22°C° 0 mm 3 m/s 749 mmHg 87%
08:00 +25°C° 0.1 mm 2 m/s 749 mmHg 82%
09:00 +26°C° 0.1 mm 2 m/s 750 mmHg 77%
10:00 +27°C° 0.1 mm 1 m/s 750 mmHg 72%
11:00 +29°C° 0.1 mm 2 m/s 749 mmHg 68%
12:00 +30°C° 0.1 mm 3 m/s 748 mmHg 63%
13:00 +31°C° 0.1 mm 3 m/s 748 mmHg 59%
14:00 +31°C° 0.5 mm 3 m/s 747 mmHg 58%
15:00 +32°C° 0.5 mm 2 m/s 747 mmHg 57%
16:00 +32°C° 0.5 mm 2 m/s 746 mmHg 55%
17:00 +29°C° 1.1 mm 3 m/s 746 mmHg 64%
18:00 +26°C° 1.1 mm 5 m/s 746 mmHg 72%
19:00 +21°C° 1.1 mm 7 m/s 746 mmHg 80%
20:00 +21°C° 0.4 mm 6 m/s 746 mmHg 83%
21:00 +20°C° 0.4 mm 4 m/s 747 mmHg 85%
22:00 +19°C° 0.4 mm 3 m/s 747 mmHg 87%
23:00 +19°C° 0 mm 3 m/s 747 mmHg 90%

Amanhã, 25 Junho, Sexta-feira

Tempo Temperatura Precipitação Vento Pressão Humidade
00:00 +19°C° 0 mm 3 m/s 747 mmHg 93%
01:00 +18°C° 0 mm 3 m/s 747 mmHg 95%
02:00 +18°C° 0 mm 3 m/s 747 mmHg 95%
03:00 +18°C° 0 mm 2 m/s 747 mmHg 96%
04:00 +17°C° 0 mm 2 m/s 747 mmHg 96%
05:00 +18°C° 0 mm 3 m/s 747 mmHg 93%
06:00 +18°C° 0 mm 3 m/s 747 mmHg 90%
07:00 +18°C° 0 mm 4 m/s 747 mmHg 87%
08:00 +19°C° 0 mm 4 m/s 747 mmHg 81%
09:00 +21°C° 0 mm 4 m/s 748 mmHg 76%
10:00 +22°C° 0 mm 4 m/s 748 mmHg 71%
11:00 +21°C° 0 mm 5 m/s 748 mmHg 72%
12:00 +21°C° 0 mm 5 m/s 748 mmHg 74%
13:00 +20°C° 0 mm 5 m/s 748 mmHg 75%
14:00 +20°C° 0 mm 5 m/s 748 mmHg 74%
15:00 +20°C° 0 mm 5 m/s 748 mmHg 73%
16:00 +21°C° 0 mm 4 m/s 748 mmHg 72%
17:00 +20°C° 0 mm 4 m/s 748 mmHg 75%
18:00 +20°C° 0 mm 3 m/s 748 mmHg 78%
19:00 +20°C° 0 mm 2 m/s 748 mmHg 80%
20:00 +19°C° 0 mm 2 m/s 749 mmHg 84%
21:00 +18°C° 0 mm 2 m/s 749 mmHg 87%
22:00 +17°C° 0 mm 2 m/s 749 mmHg 90%
23:00 +16°C° 0 mm 2 m/s 749 mmHg 91%

Depois de amanhã, 26 Junho, Sábado

Tempo Temperatura Precipitação Vento Pressão Humidade
00:00 +16°C° 0 mm 3 m/s 749 mmHg 92%
01:00 +14°C° 0 mm 3 m/s 749 mmHg 94%
02:00 +14°C° 0 mm 3 m/s 749 mmHg 93%
03:00 +15°C° 0 mm 2 m/s 749 mmHg 93%
04:00 +15°C° 0 mm 2 m/s 750 mmHg 93%
05:00 +16°C° 0 mm 2 m/s 750 mmHg 86%
06:00 +18°C° 0 mm 2 m/s 750 mmHg 80%
07:00 +19°C° 0 mm 2 m/s 751 mmHg 73%
08:00 +20°C° 0 mm 2 m/s 751 mmHg 68%
09:00 +23°C° 0 mm 2 m/s 751 mmHg 63%
10:00 +24°C° 0 mm 2 m/s 750 mmHg 57%
11:00 +24°C° 0 mm 2 m/s 750 mmHg 56%
12:00 +25°C° 0 mm 3 m/s 750 mmHg 54%
13:00 +25°C° 0 mm 3 m/s 750 mmHg 52%
14:00 +25°C° 0 mm 3 m/s 750 mmHg 52%
15:00 +25°C° 0 mm 2 m/s 750 mmHg 53%
16:00 +25°C° 0 mm 2 m/s 750 mmHg 53%
17:00 +24°C° 0 mm 2 m/s 750 mmHg 57%
18:00 +23°C° 0 mm 2 m/s 750 mmHg 62%
19:00 +21°C° 0 mm 2 m/s 750 mmHg 66%
20:00 +20°C° 0 mm 2 m/s 750 mmHg 68%
21:00 +20°C° 0 mm 1 m/s 750 mmHg 71%
22:00 +19°C° 0 mm 1 m/s 750 mmHg 73%
23:00 +19°C° 0 mm 1 m/s 750 mmHg 74%

27 Junho, Domingo

Tempo Temperatura Precipitação Vento Pressão Humidade
00:00 +18°C° 0 mm 1 m/s 750 mmHg 75%
01:00 +15°C° 0 mm 0 m/s 750 mmHg 76%
02:00 +15°C° 0 mm 0 m/s 750 mmHg 76%
03:00 +15°C° 0 mm 0 m/s 750 mmHg 76%
04:00 +15°C° 0 mm 0 m/s 750 mmHg 77%
05:00 +17°C° 0 mm 0 m/s 750 mmHg 71%
06:00 +18°C° 0 mm 0 m/s 750 mmHg 66%
07:00 +20°C° 0 mm 0 m/s 750 mmHg 61%
08:00 +21°C° 0 mm 0 m/s 750 mmHg 57%
09:00 +25°C° 0 mm 1 m/s 750 mmHg 54%
10:00 +26°C° 0 mm 1 m/s 750 mmHg 50%
11:00 +26°C° 0 mm 1 m/s 750 mmHg 48%
12:00 +27°C° 0 mm 1 m/s 750 mmHg 47%
13:00 +28°C° 0 mm 1 m/s 750 mmHg 45%
14:00 +27°C° 0 mm 1 m/s 750 mmHg 47%
15:00 +27°C° 0 mm 1 m/s 750 mmHg 49%
16:00 +27°C° 0 mm 1 m/s 750 mmHg 52%
17:00 +26°C° 0 mm 1 m/s 750 mmHg 56%
18:00 +25°C° 0 mm 1 m/s 750 mmHg 59%
19:00 +24°C° 0 mm 1 m/s 750 mmHg 63%
20:00 +23°C° 0 mm 1 m/s 750 mmHg 65%
21:00 +22°C° 0 mm 1 m/s 750 mmHg 67%
22:00 +21°C° 0 mm 1 m/s 750 mmHg 69%
23:00 +20°C° 0 mm 1 m/s 750 mmHg 70%

28 Junho, Segunda-feira

Tempo Temperatura Precipitação Vento Pressão Humidade
00:00 +20°C° 0 mm 1 m/s 750 mmHg 72%
01:00 +19°C° 0 mm 1 m/s 750 mmHg 74%
02:00 +18°C° 0 mm 2 m/s 750 mmHg 75%
03:00 +18°C° 0 mm 2 m/s 750 mmHg 77%
04:00 +17°C° 0 mm 2 m/s 750 mmHg 79%
05:00 +19°C° 0 mm 2 m/s 750 mmHg 74%
06:00 +21°C° 0 mm 2 m/s 750 mmHg 70%
07:00 +23°C° 0 mm 2 m/s 751 mmHg 65%
08:00 +25°C° 0 mm 2 m/s 751 mmHg 60%
09:00 +26°C° 0 mm 2 m/s 750 mmHg 55%
10:00 +27°C° 0 mm 2 m/s 750 mmHg 50%
11:00 +28°C° 0 mm 2 m/s 750 mmHg 48%
12:00 +29°C° 0 mm 2 m/s 750 mmHg 46%
13:00 +29°C° 0 mm 2 m/s 750 mmHg 44%
14:00 +29°C° 0 mm 2 m/s 750 mmHg 44%
15:00 +29°C° 0 mm 2 m/s 750 mmHg 44%
16:00 +29°C° 0 mm 2 m/s 749 mmHg 45%
17:00 +28°C° 0 mm 2 m/s 749 mmHg 51%
18:00 +27°C° 0 mm 2 m/s 749 mmHg 57%
19:00 +26°C° 0 mm 2 m/s 749 mmHg 63%
20:00 +25°C° 0 mm 2 m/s 749 mmHg 65%
21:00 +23°C° 0 mm 2 m/s 749 mmHg 67%
22:00 +21°C° 0 mm 3 m/s 749 mmHg 70%
23:00 +21°C° 0 mm 3 m/s 749 mmHg 72%

29 Junho, Terça-feira

Tempo Temperatura Precipitação Vento Pressão Humidade
00:00 +20°C° 0 mm 3 m/s 749 mmHg 73%
01:00 +20°C° 0 mm 3 m/s 749 mmHg 75%
02:00 +19°C° 0 mm 3 m/s 749 mmHg 77%
03:00 +19°C° 0 mm 3 m/s 749 mmHg 79%
04:00 +19°C° 0 mm 3 m/s 749 mmHg 81%
05:00 +21°C° 0 mm 3 m/s 749 mmHg 76%
06:00 +22°C° 0 mm 4 m/s 749 mmHg 70%
07:00 +25°C° 0 mm 4 m/s 749 mmHg 65%
08:00 +26°C° 0 mm 4 m/s 749 mmHg 60%
09:00 +28°C° 0 mm 4 m/s 749 mmHg 55%
10:00 +29°C° 0 mm 4 m/s 749 mmHg 50%
11:00 +30°C° 0 mm 4 m/s 749 mmHg 48%
12:00 +32°C° 0 mm 4 m/s 749 mmHg 46%
13:00 +32°C° 0 mm 4 m/s 749 mmHg 44%
14:00 +31°C° 0 mm 3 m/s 749 mmHg 44%
15:00 +31°C° 0 mm 3 m/s 748 mmHg 44%
16:00 +33°C° 0 mm 3 m/s 748 mmHg 44%
17:00 +30°C° 0 mm 3 m/s 748 mmHg 51%
18:00 +29°C° 0 mm 3 m/s 748 mmHg 58%
19:00 +27°C° 0 mm 3 m/s 748 mmHg 65%
20:00 +26°C° 0.1 mm 3 m/s 748 mmHg 69%
21:00 +24°C° 0.1 mm 3 m/s 748 mmHg 72%
22:00 +22°C° 0.1 mm 3 m/s 749 mmHg 75%
23:00 +22°C° 0 mm 3 m/s 749 mmHg 76%
Mostrar mais

Necessitamos do seu Consentimento

A Meteoprog e os seus Fornecedores de Serviços podem armazenar e aceder a dados pessoais como cookies, identificadores do dispositivo ou outras tecnologias semelhantes existentes no seu dispositivo e processar estes dados para personalizar conteúdos e anúncios, assim como funcionalidades nas redes sociais e análise de tráfego.

  • Armazenar e/ou aceder a informações no seu dispositivo

    Os cookies, identificadores do dispositivo ou outras informações podem ser armazenados ou acedidos no seu dispositivo, para os fins acima indicados.

  • Anúncios e conteúdos personalizados, medição de anúncios e conteúdos, dados sobre o público-alvo e desenvolvimento de produtos

    Os anúncios e os conteúdos podem ser personalizados com base num perfil. Podem ser adicionados dados adicionais para uma maior personalização dos anúncios e dos conteúdos. A eficácia dos anúncios e dos conteúdos pode ser medida. Podem ser obtidas informações sobre o público que visualizou os anúncios e os conteúdos. Estes dados podem ser usados para desenvolver ou melhorar sistemas, softwares ou a experiência do utilizador.

Ao clicar em "Eu concordo”, permitirá o uso de cookies, identificadores do dispositivo e web beacons mencionados ou outras tecnologias semelhantes. As configurações do navegador do seu dispositivo podem ser alteradas.

Para certos fins, podem ser invocados interesses legítimos ao invés de consentimento. Pode ler mais informação sobre este assunto na nossa Política de Privacidade e Cookies.